Regional Weather Roundup
Issued by NWS

Home | Current Version | Previous Version | Text Only | Print | Product List | Glossary On
Versions: 1 2 3 4 5 6 7 8 9 10 11 12 13 14 15 16 17 18 19 20 21 22 23 24 25 26 27 28 29 30 31 32 33 34 35 36 37 38 39 40 41 42 43 44 45 46 47 48 49 50
000
ASUS44 KJAN 120010
RWRMS

MISSISSIPPI HOURLY WEATHER ROUNDUP
NATIONAL WEATHER SERVICE JACKSON MS
700 PM CDT FRI JUL 11 2014

NOTE: "FAIR: INDICATES FEW OR NO CLOUDS BELOW 12,000 FEET WITH NO
SIGNIFICANT WEATHER AND/OR OBSTRUCTIONS TO VISIBILITY.

MSZ001>002-007>008-010>013-018>021-025>028-034>036-120100-
NORTHWEST MISSISSIPPI

CITY           SKY/WX    TMP DP  RH WIND       PRES   REMARKS
CLARKSDALE     FAIR      86  72  62 CALM      30.12S HX  92
CLEVELAND      FAIR      83  75  76 CALM      30.11S HX  91
GREENWOOD      MOSUNNY   85  72  65 N3        30.11R HX  91
6HR MIN TEMP:  85; 6HR MAX TEMP:  89;

GREENVILLE     MOSUNNY   86  72  62 CALM      30.11R HX  92
6HR MIN TEMP:  81; 6HR MAX TEMP:  90;

GRENADA        FAIR      82  72  69 CALM      30.12R
OLIVE BRANCH   MOSUNNY   81  75  83 CALM      30.12F
OXFORD         FAIR      82  70  65 N5        30.14S
TUNICA         CLEAR     82  72  69 E5        30.12S
$$

MSZ003>006-009-014>017-022>024-029>033-037>039-120100-
NORTHEAST MISSISSIPPI

CITY           SKY/WX    TMP DP  RH WIND       PRES   REMARKS
BELMONT        FAIR      85  64  48 CALM      30.13R
COLUMBUS AFB   SUNNY     86  68  54 N3        30.10S HX  90
6HR MIN TEMP:  86; 6HR MAX TEMP:  90;

CORINTH        FAIR      86  66  51 CALM      30.12R
GOLDN TRIANGLE SUNNY     90  70  51 N6        30.11S HX  95
STARKVILLE     FAIR      82  73  74 CALM      30.11R
TUPELO         SUNNY     86  67  52 NE8       30.11R
6HR MIN TEMP:  86; 6HR MAX TEMP:  91;

$$

MSZ040-058-120100-
CENTRAL MISSISSIPPI

CITY           SKY/WX    TMP DP  RH WIND       PRES   REMARKS
JACKSON INTL   CLOUDY    80  75  84 W3        30.13R
6HR MIN TEMP:  74; 6HR MAX TEMP:  84; 6HR PCP:  0.79;

JACKSON HAWKNS PTSUNNY   82  73  74 CALM      30.13R THUNDER
6HR MIN TEMP:  72; 6HR MAX TEMP:  84; 6HR PCP:  1.31;

MERIDIAN KEY   MOSUNNY   84  71  65 W3        30.10R
6HR MIN TEMP:  84; 6HR MAX TEMP:  93;

MERIDIAN NAS   SUNNY     86  71  60 CALM      30.11R HX  91
6HR MIN TEMP:  81; 6HR MAX TEMP:  89; 6HR PCP: TRACE;

RAYMOND        FAIR      81  75  83 W3        30.14R
VICKSBURG      PTSUNNY   73  69  87 S7        30.14R
6HR MIN TEMP:  73; 6HR MAX TEMP:  94; 6HR PCP:  0.04;

$$

MSZ059>079-120100-
SOUTH MISSISSIPPI

CITY           SKY/WX    TMP DP  RH WIND       PRES   REMARKS
BROOKHAVEN     FAIR      82  73  74 CALM      30.15S
COLUMBIA       FAIR      75  73  94 CALM      30.11R FOG
HATTIESBURG    CLOUDY    78  72  81 W5        30.10F
6HR MIN TEMP:  76; 6HR MAX TEMP:  91; 6HR PCP: TRACE;

MCCOMB         CLOUDY    78  73  84 CALM      30.13S
6HR MIN TEMP:  75; 6HR MAX TEMP:  92; 6HR PCP:  0.06;

NATCHEZ        PTSUNNY   82  73  74 SE8       30.13S
6HR MIN TEMP:  82; 6HR MAX TEMP:  91;

PINE BELT      CLOUDY    75  70  83 W3        30.12S
6HR MIN TEMP:  75; 6HR MAX TEMP:  90;

$$

MSZ080>082-120100-
COASTAL MISSISSIPPI

CITY           SKY/WX    TMP DP  RH WIND       PRES   REMARKS
BAY ST LOUIS   MOSUNNY  N/A N/A N/A CALM      30.10S
BILOXI         CLOUDY    77  74  91 NW5       30.08F
6HR MIN TEMP:  74; 6HR MAX TEMP:  91; 6HR PCP:  0.85;

PASCAGOULA     CLOUDY    78  72  81 VRB5      30.09S
6HR MIN TEMP:  75; 6HR MAX TEMP:  93;

GULFPORT       CLOUDY    79  73  82 W3        30.08F
6HR MIN TEMP:  77; 6HR MAX TEMP:  95; 6HR PCP:  1.24;

$$


USA.gov is the U.S. government's official web portal to all federal, state and local government web resources and services.